Regional Weather Roundup
Issued by NWS

Home | Current Version | Previous Version | Graphics & Text | Print | Product List | Glossary On
Versions: 1 2 3 4 5 6 7 8 9 10 11 12 13 14 15 16 17 18 19 20 21 22 23 24 25 26 27 28 29 30 31 32 33 34 35 36 37 38 39 40 41 42 43 44 45 46 47 48 49 50
119
ASUS43 KLMK 282210
RWRKY
KENTUCKY REGIONAL WEATHER ROUNDUP
NATIONAL WEATHER SERVICE LOUISVILLE KY
600 PM EDT TUE MAR 28 2017

NOTE "FAIR" INDICATES FEW OR NO CLOUDS BELOW 12,000 FEET
WITH NO SIGNIFICANT WEATHER AND/OR OBSTRUCTIONS TO VISIBILITY.

KYZ001>023-026-027-061>063-070>075-282300-
WESTERN AND SOUTH CENTRAL KENTUCKY

CITY           SKY/WX    TMP DP  RH WIND       PRES   REMARKS
PADUCAH        CLOUDY    62  51  67 N8        30.02F
HENDERSON      CLOUDY    61  50  67 E3        30.03F
OWENSBORO      CLOUDY    62  54  74 N8        30.04S
HOPKINSVILLE   CLOUDY    64  53  69 N8        30.01F
BOWLING GREEN  CLOUDY    63  55  75 N6        30.03S
GLASGOW        CLOUDY    62  54  74 CALM      30.02S
$$

KYZ024-025-028>034-038-045-046-053-282300-
NORTH CENTRAL KENTUCKY

CITY           SKY/WX    TMP DP  RH WIND       PRES   REMARKS
LOUISVILLE/SDF MOSUNNY   67  48  50 N10       30.03R
LOUISVILLE/LOU SUNNY     65  50  58 N9        30.03R
FORT KNOX      CLOUDY    64  53  68 NE8       30.00S
$$

KYZ035>037-039>044-047>052-055>060-089>105-282300-
NORTHEAST KENTUCKY

CITY           SKY/WX    TMP DP  RH WIND       PRES   REMARKS
LEXINGTON      CLOUDY    61  53  75 NW7       30.02S
COVINGTON      CLOUDY    57  50  77 N9        30.04R
FRANKFORT        N/A     62  52  69 N6        30.02R
$$

KYZ054-064>069-076>088-106>120-282300-
SOUTHEAST KENTUCKY

CITY           SKY/WX    TMP DP  RH WIND       PRES   REMARKS
JACKSON        CLOUDY    62  51  67 NW5       30.01R
LONDON         CLOUDY    63  50  62 W8        30.01R
SOMERSET       CLOUDY    61  50  67 W3        30.03R
MIDDLESBORO    CLOUDY    66  52  60 NW7       30.00R
MONTICELLO     CLOUDY    63  53  70 NW8       30.03S
$$





USA.gov is the U.S. government's official web portal to all federal, state and local government web resources and services.